Location: Eckley
(40.9930°N, 75.8630°W)
Time: 06:49:06
(UTC-05:00)

Daily predictions for brighter satellites

Satellite Brightness Start Highest point End
(mag) Time Altitude Azimuth Time Altitude Azimuth Time Altitude Azimuth
Cosmos 1833 4.3 18:12:22 10° SSW 18:18:04 90° ESE 18:23:45 10° NNE
SL-16 R/B 4.0 18:16:28 10° NW 18:21:39 38° WSW 18:26:50 10° S
Resurs 01 Rocket 2.9 18:19:48 10° ESE 18:23:07 21° ENE 18:26:28 10° NNE
Meteor 1-11 Rocket 3.9 18:17:35 10° S 18:23:14 56° E 18:29:02 10° NNE
NOAA 12 4.2 18:18:18 10° SSE 18:23:31 60° ENE 18:28:47 10° N
Cosmos 2333 Rocket 3.5 18:21:32 10° N 18:25:55 22° NE 18:30:17 10° ESE
Cosmos 1140 Rocket 3.4 18:21:09 10° SSW 18:26:16 82° ESE 18:31:28 10° NNE
Cosmos 614 Rocket 3.9 18:22:15 10° S 18:27:15 62° ESE 18:32:16 10° NNE
FENGYUN 3A 4.2 18:25:47 10° SE 18:30:43 38° ENE 18:35:41 10° N
ATLAS CENTAUR R/B 3.3 18:31:37 10° S 18:34:28 15° SE 18:36:03 11° ESE
Meteor 1-28 Rocket 3.8 18:31:59 10° N 18:35:45 63° WNW 18:39:31 10° SSW
GPS 2-04 Rocket1 3.9 18:32:10 10° WSW 18:36:02 36° S 18:39:41 12° ESE
Cosmos 1570 Rocket 4.1 18:31:04 10° NNW 18:36:15 58° ENE 18:41:24 10° SSE
Cosmos 2181 Rocket 4.0 18:30:08 10° N 18:36:26 78° E 18:42:47 10° S
Cosmos 1633 2.8 18:35:01 10° SSW 18:38:41 74° W 18:42:22 10° N
USA 229 DEB 4.0 18:32:35 10° NNW 18:39:31 52° NE 18:46:33 10° SE
USA 229 4.0 18:32:41 10° NNW 18:39:37 51° NE 18:46:38 10° ESE
Genesis I 3.2 18:36:13 10° NNW 18:40:11 85° ENE 18:44:06 10° SSE
Cosmos 1238 Rocket 2.1 18:37:37 10° N 18:40:35 84° W 18:43:39 10° S
Okean 1 Rocket 3.0 18:37:08 10° S 18:41:35 70° E 18:46:03 10° NNE
Cosmos 1709 Rocket 4.2 18:37:33 10° SSW 18:43:45 75° W 18:49:56 10° N
Cosmos 2074 Rocket 4.2 18:39:18 10° SSE 18:45:15 48° E 18:51:15 10° NNE
METEOR-M 4.2 18:40:05 10° SSE 18:45:26 88° WSW 18:50:49 10° NNW
Cosmos 1025 Rocket 3.3 18:44:08 10° N 18:48:20 44° ENE 18:52:33 10° SSE
OTV 4 2.3 18:48:08 10° SSW 18:50:16 18° SSE 18:51:22 15° SE
Spot 2 Rocket 3.9 18:45:48 10° SE 18:50:32 42° ENE 18:55:19 10° N
Cosmos 2184 Rocket 4.1 18:45:33 10° SSE 18:51:37 52° E 18:57:39 10° NNE
Meteor 1-5 Rocket 4.5 18:46:15 10° SSE 18:51:59 51° E 18:57:38 10° NNE
FengYun 1-2 T 4.2 18:50:15 10° SSE 18:55:38 61° ENE 19:01:04 10° N
Cosmos 2322 4.4 18:52:01 10° NNW 18:57:37 57° WSW 19:03:10 10° S
Hubble Space Telescope 3.1 18:59:53 10° SSW 19:01:42 13° S 19:03:31 10° SE
BREEZE-M DEB (TANK) 2.2 19:00:15 10° SW 19:04:23 66° SSE 19:05:21 33° ENE
Cosmos 1850 Rocket 4.3 19:00:58 10° SSW 19:06:14 71° WNW 19:11:36 10° NNE
Envisat 4.2 19:06:50 21° ENE 19:07:15 21° ENE 19:10:58 10° NNE
Cosmos 2208 Rocket 4.2 19:01:49 10° NNW 19:07:17 82° WSW 19:12:40 10° SSE
SJ-6B 3.4 19:05:01 10° S 19:08:56 59° WSW 19:12:49 10° NNW
Cosmos 1544 Rocket 4.1 19:05:15 10° SSE 19:09:07 33° E 19:13:01 10° NNE
Nadezhda 3 Rocket 4.5 19:03:52 10° N 19:09:30 36° ENE 19:14:50 11° SE
NOSS 3-1 (C) 4.5 19:02:56 10° NNW 19:09:58 42° NE 19:14:48 22° ESE
NOSS 0 Rocket 4.2 19:04:58 10° NNW 19:10:54 48° ENE 19:15:08 19° SE
Cosmos 405 Rocket 3.2 19:07:19 10° N 19:11:11 41° ENE 19:13:12 23° SE
Cosmos 2237 Rocket 2.9 19:07:05 10° N 19:12:18 35° ENE 19:14:36 25° E
ALOS 2.3 19:07:53 10° SSE 19:12:33 87° W 19:17:15 10° NNW
HJ-1C 3.5 19:10:25 10° S 19:13:47 79° WSW 19:17:10 10° NNW
Cosmos 2297 Rocket 3.1 19:09:45 10° SSE 19:14:17 25° ESE 19:14:23 25° E
Cosmos 2333 4.2 19:08:54 10° NNW 19:14:40 90° WSW 19:20:27 10° SSE
H-2A R/B 2.6 19:11:59 10° SSE 19:15:39 65° ENE 19:19:23 10° N
CZ-2D R/B 3.4 19:14:14 22° SE 19:16:22 48° ENE 19:20:04 10° N
COSMOS 2428 2.9 19:10:48 10° NNW 19:16:30 77° WSW 19:22:10 10° SSE
Okean 1-7 Rocket 4.1 19:14:38 10° NNW 19:19:06 62° W 19:23:29 10° S
Cosmos 2154 Rocket 4.2 19:15:05 10° SSE 19:21:06 47° E 19:27:07 10° NNE
Meteor 2-4 Rocket 4.1 19:16:23 10° NNW 19:21:49 62° W 19:27:06 10° S
Cosmos 2285 Rocket 4.0 19:16:52 10° NNW 19:23:22 84° ENE 19:29:45 10° SSE
Gbstr 26 Del rocket 4.2 19:20:12 10° W 19:23:36 30° NNW 19:25:40 18° NNE
Cosmos 2360 Rocket 4.2 19:19:44 10° NW 19:24:33 29° WSW 19:29:20 10° SSW
Cosmos 2219 Rocket 2.1 19:19:06 10° NNW 19:24:43 71° ENE 19:28:57 18° SSE
Okean 2 3.3 19:24:33 10° N 19:28:45 87° E 19:32:56 10° S
Cosmos 2219 4.0 19:27:03 10° SW 19:32:40 54° WNW 19:38:18 10° NNE
Cosmos 2227 Rocket 2.3 19:29:06 10° S 19:34:31 50° ESE 19:38:28 18° NE
Helios 1A 2.9 19:33:28 44° SE 19:34:34 63° ENE 19:38:41 10° N
Atlas Centaur 2 4.1 19:30:10 10° SSW 19:34:40 18° SSE 19:35:47 17° SSE
Cosmos 1486 Rocket 4.3 19:29:57 10° S 19:34:57 44° ESE 19:36:14 37° ENE
Helios 1B rocket 2.4 19:31:13 10° NNE 19:35:19 58° E 19:39:24 10° S
Abrixas rocket 3.1 19:33:32 10° W 19:36:45 41° NNW 19:37:11 39° N
SAR-Lupe-1 4.1 19:44:47 72° N 19:44:47 72° N 19:48:02 10° NNW
SAR-Lupe-4 3.6 19:44:54 66° SSW 19:45:18 76° WSW 19:48:53 10° NNW
Cosmos 1455 Rocket 2.9 19:42:10 10° S 19:46:31 72° E 19:50:53 10° NNE
Cosmos 841 Rocket 4.1 19:42:14 10° N 19:46:23 38° NE 19:46:23 38° NE
SL-16 R/B 3.2 19:43:07 10° N 19:47:23 29° NE 19:47:23 29° NE
Cosmos 962 Rocket 4.4 19:45:18 10° S 19:51:22 61° E 19:57:24 10° NNE
Meteor 2-8 Rocket 4.5 19:48:24 10° N 19:54:20 53° ENE 19:54:42 52° E
Cosmos 1763 Rocket 3.5 19:52:41 10° NNW 19:57:29 60° NE 19:57:29 60° NE
Resurs 01 Rocket 3.2 19:55:21 10° SSW 19:59:22 35° W 20:03:26 10° NNW
Cosmos 2333 Rocket 2.6 20:04:56 10° NNW 20:10:38 62° WSW 20:12:59 35° S
GEOS 3 Rocket 4.1 20:08:20 25° NNE 20:11:23 60° NW 20:16:35 10° SW
Cosmos 1980 3.7 20:06:02 10° NNW 20:11:41 75° WSW 20:12:50 56° S
GPS 2-04 Rocket1 4.4 20:11:33 10° WSW 20:14:12 30° SW 20:14:12 30° SW
Cosmos 1295 Rocket 4.5 20:33:36 77° SW 20:33:57 80° W 20:40:17 10° N
Cosmos 2082 4.2 20:31:12 10° SW 20:36:50 58° WNW 20:37:59 49° NNW
NOSS 3-1 (A) 3.9 20:35:45 10° NW 20:43:27 85° WSW 20:44:07 77° S
Envisat 4.1 20:47:02 41° WNW 20:47:02 41° WNW 20:50:50 10° NNW
ATLAS 2AS CENTAUR R/B 3.8 20:41:42 10° NNW 20:48:06 38° NNE 20:48:06 38° NNE
Cosmos 2237 Rocket 3.5 20:51:13 10° NW 20:56:18 34° WSW 20:56:29 34° WSW
Cosmos 2297 Rocket 3.4 20:52:36 10° SW 20:56:25 36° WSW 20:56:25 36° WSW
Cosmos 2227 Rocket 4.1 21:14:14 10° WSW 21:18:50 25° NW 21:20:36 22° NNW
SL-16 R/B 4.3 21:26:59 10° NW 21:29:17 23° NW 21:29:17 23° NW
